GW4305 Weather Reports


time (UTC)temp
C
wind
direction
speed
KPH
gust
KPH
rain 1hr
cm
rain 24hr
cm
rain mn
cm
humidity
%
barometer
mb
20260906234146 14 256 0.0 1.6 0.00 0.23 0.23 85 1017.2
20260906233646 14 269 0.0 1.6 0.00 0.23 0.23 85 1017.1
20260906233145 14 274 0.0 1.6 0.00 0.23 0.23 87 1017.3
20260906232640 14 255 0.0 0.0 0.00 0.23 0.23 90 1017.4
20260906232135 14 10 1.6 3.2 0.00 0.23 0.23 88 1017.4
20260906231630 14 49 0.0 1.6 0.00 0.23 0.23 89 1017.3
20260906231125 14 263 0.0 0.0 0.00 0.23 0.23 90 1017.3
20260906230624 14 31 0.0 4.8 0.00 0.23 0.23 89 1017.3
20260906230118 14 35 0.0 3.2 0.00 0.23 0.23 90 1017.2
20260906225618 14 65 0.0 1.6 0.00 0.23 0.23 90 1017.5
20260906225115 14 282 0.0 1.6 0.00 0.23 0.23 90 1017.4
20260906224609 14 313 0.0 0.0 0.00 0.23 0.23 90 1017.5
20260906224106 14 335 0.0 0.0 0.00 0.23 0.23 90 1017.5
20260906223602 13 287 0.0 1.6 0.00 0.23 0.23 90 1017.8
20260906223101 14 299 0.0 3.2 0.00 0.23 0.23 90 1017.5
20260906222600 14 338 0.0 0.0 0.00 0.23 0.23 91 1017.5
20260906222058 13 18 0.0 1.6 0.00 0.23 0.23 90 1017.6
20260906221556 13 55 0.0 3.2 0.00 0.23 0.23 90 1017.6
20260906221052 13 279 0.0 0.0 0.00 0.23 0.23 91 1017.5
20260906220547 13 60 1.6 3.2 0.00 0.23 0.23 90 1017.8
20260906220042 13 307 0.0 1.6 0.00 0.23 0.23 91 1017.8
20260906215540 13 31 0.0 3.2 0.00 0.23 0.23 90 1018.0
20260906215038 13 291 0.0 0.0 0.00 0.23 0.23 91 1017.8
20260906214532 13 305 0.0 3.2 0.00 0.23 0.23 89 1018.0
20260906214027 13 262 0.0 0.0 0.00 0.23 0.23 91 1017.8
20260906213526 13 290 0.0 0.0 0.00 0.23 0.23 91 1017.7
20260906213021 13 276 0.0 0.0 0.00 0.23 0.23 91 1018.0
20260906212515 13 223 0.0 1.6 0.00 0.23 0.23 91 1017.7
20260906212010 13 320 0.0 0.0 0.00 0.23 0.23 93 1017.7
20260906211504 13 69 0.0 1.6 0.00 0.23 0.23 92 1017.6
20260906211000 13 271 0.0 0.0 0.00 0.23 0.23 93 1017.8
20260906210454 13 252 0.0 0.0 0.00 0.23 0.23 93 1018.0
20260906205948 12 255 0.0 1.6 0.00 0.23 0.23 93 1018.0
20260906205444 12 282 0.0 0.0 0.00 0.23 0.23 95 1018.0
20260906204940 12 286 0.0 1.6 0.00 0.23 0.23 96 1018.2
20260906204440 12 297 0.0 0.0 0.00 0.23 0.23 97 1017.8
20260906203938 12 290 0.0 0.0 0.00 0.23 0.23 97 1018.1
20260906203434 12 269 0.0 0.0 0.00 0.23 0.23 98 1018.1
20260906202931 12 276 0.0 0.0 0.00 0.23 0.23 97 1018.2
20260906202431 12 251 0.0 1.6 0.00 0.23 0.23 97 1018.2
20260906201926 11 284 0.0 0.0 0.00 0.23 0.23 98 1018.2
20260906201420 11 284 0.0 1.6 0.00 0.23 0.23 98 1018.3
20260906200915 11 67 0.0 1.6 0.00 0.23 0.23 98 1018.1
20260906200411 12 29 0.0 0.0 0.00 0.23 0.23 98 1018.3
20260906195906 12 37 0.0 0.0 0.00 0.23 0.23 98 1018.3
20260906195402 11 30 0.0 0.0 0.00 0.23 0.23 98 1018.4
20260906194857 11 30 0.0 0.0 0.00 0.23 0.23 98 1018.4
20260906194353 11 30 0.0 0.0 0.00 0.23 0.23 99 1018.4
20260906193849 11 41 0.0 0.0 0.00 0.23 0.23 99 1018.4
20260906193343 11 34 0.0 0.0 0.00 0.23 0.23 99 1018.4
20260906192838 11 33 0.0 1.6 0.00 0.23 0.23 99 1018.3
20260906192333 11 32 0.0 0.0 0.00 0.23 0.23 99 1018.6
20260906191832 11 32 0.0 0.0 0.00 0.23 0.23 99 1018.5
20260906191327 11 32 0.0 0.0 0.00 0.23 0.23 99 1018.5
20260906190822 11 32 0.0 0.0 0.13 0.23 0.23 99 1018.6
20260906190321 11 33 0.0 0.0 0.13 0.23 0.23 99 1018.7
20260906185820 11 33 0.0 0.0 0.00 0.20 0.20 99 1018.7
20260906185319 11 33 0.0 0.0 0.00 0.20 0.20 99 1018.7
20260906184814 11 33 0.0 0.0 0.00 0.20 0.20 99 1018.8
20260906184309 11 33 0.0 0.0 0.00 0.20 0.20 99 1018.8
20260906183805 10 33 0.0 0.0 0.00 0.20 0.20 99 1019.2
20260906183301 10 33 0.0 0.0 0.00 0.20 0.20 99 1018.8
20260906182801 10 33 0.0 0.0 0.18 0.20 0.20 99 1019.0
20260906182257 10 33 0.0 1.6 0.18 0.20 0.20 99 1019.1
20260906181752 10 44 0.0 0.0 0.00 0.18 0.18 99 1018.8
20260906181248 10 44 0.0 0.0 0.00 0.18 0.18 99 1019.1
20260906180743 10 44 0.0 0.0 0.00 0.18 0.18 99 1019.2
20260906180238 10 44 0.0 0.0 0.13 0.18 0.18 99 1019.0
20260906175736 10 44 0.0 0.0 0.13 0.18 0.18 99 1019.0
20260906175231 10 44 0.0 0.0 0.00 0.15 0.15 99 1019.1
20260906174730 10 68 0.0 0.0 0.00 0.15 0.15 99 1019.1
20260906174229 10 75 0.0 1.6 0.00 0.15 0.15 99 1019.3
20260906173719 10 269 0.0 0.0 0.00 0.15 0.15 99 1019.1
20260906173215 10 270 0.0 0.0 0.00 0.15 0.15 99 1019.4
20260906172714 10 294 0.0 0.0 0.18 0.15 0.15 99 1019.2
20260906172210 10 284 0.0 0.0 0.18 0.15 0.15 99 1019.3
20260906171710 10 246 0.0 0.0 0.00 0.13 0.13 99 1019.3
20260906171205 10 229 0.0 0.0 0.00 0.13 0.13 99 1019.5
20260906170701 10 302 0.0 0.0 0.00 0.13 0.13 99 1019.4
20260906170201 9 251 0.0 0.0 0.00 0.13 0.13 99 1019.5
20260906165657 9 249 0.0 0.0 0.00 0.13 0.13 99 1019.6
20260906165152 9 257 0.0 0.0 0.00 0.13 0.13 99 1019.6
20260906164651 9 257 0.0 0.0 0.00 0.13 0.13 99 1019.5
20260906164147 9 258 0.0 0.0 0.00 0.13 0.13 99 1019.8
20260906163643 9 263 0.0 0.0 0.00 0.13 0.13 99 1019.7
20260906163138 9 263 0.0 0.0 0.00 0.13 0.13 99 1019.8
20260906162635 9 263 0.0 0.0 0.00 0.13 0.13 99 1019.8
20260906162129 8 263 0.0 0.0 0.00 0.13 0.13 99 1019.8
20260906161624 8 262 0.0 0.0 0.00 0.13 0.13 99 1020.0
20260906161123 8 252 0.0 0.0 0.00 0.13 0.13 99 1019.7
20260906160622 8 251 0.0 0.0 0.00 0.13 0.13 99 1020.0
20260906160121 8 295 0.0 0.0 0.00 0.13 0.13 99 1019.8
20260906155619 8 244 0.0 0.0 0.00 0.13 0.13 99 1020.0
20260906155115 8 128 0.0 0.0 0.00 0.13 0.13 99 1020.1
20260906154610 8 292 0.0 0.0 0.00 0.13 0.13 99 1020.0
20260906154108 8 290 0.0 0.0 0.00 0.13 0.13 99 1019.8
20260906153608 8 290 0.0 0.0 0.00 0.13 0.13 99 1019.7
20260906153103 8 291 0.0 0.0 0.00 0.13 0.13 99 1020.0
20260906152557 8 301 0.0 0.0 0.00 0.13 0.13 99 1020.0
20260906152056 8 296 0.0 0.0 0.00 0.13 0.13 99 1020.2
20260906151546 8 304 0.0 0.0 0.00 0.13 0.13 99 1019.8
20260906151042 8 291 0.0 0.0 0.00 0.13 0.13 99 1019.7
20260906150537 8 299 0.0 0.0 0.00 0.13 0.13 99 1019.7
20260906150032 8 300 0.0 0.0 0.00 0.13 0.13 99 1019.4
20260906145530 8 296 0.0 0.0 0.00 0.13 0.13 99 1019.7
20260906145026 8 303 0.0 0.0 0.00 0.13 0.13 99 1019.8
20260906144515 8 265 0.0 0.0 0.00 0.13 0.13 99 1019.8
20260906144010 8 247 0.0 0.0 0.00 0.13 0.13 99 1020.2
20260906143505 8 246 0.0 0.0 0.00 0.13 0.13 99 1020.0
20260906143002 8 271 0.0 0.0 0.00 0.13 0.13 99 1020.1
20260906142500 8 270 0.0 0.0 0.00 0.13 0.13 99 1020.1
20260906141950 8 281 0.0 0.0 0.00 0.13 0.13 99 1019.7
20260906141449 8 284 0.0 0.0 0.00 0.13 0.13 99 1019.8
20260906140944 8 284 0.0 0.0 0.00 0.13 0.13 99 1020.0
20260906140439 8 283 0.0 0.0 0.00 0.13 0.13 99 1020.0
20260906135936 8 293 0.0 0.0 0.00 0.13 0.13 99 1019.7
20260906135430 8 293 0.0 0.0 0.00 0.13 0.13 99 1020.1
20260906134926 8 293 0.0 0.0 0.00 0.13 0.13 99 1020.1
20260906134421 8 281 0.0 0.0 0.00 0.13 0.13 99 1020.0
20260906133916 8 275 0.0 0.0 0.00 0.13 0.13 99 1019.8
20260906133412 8 276 0.0 0.0 0.00 0.13 0.13 99 1020.1
20260906132907 8 276 0.0 0.0 0.00 0.13 0.13 99 1020.0
20260906132402 8 276 0.0 0.0 0.00 0.13 0.13 99 1020.1
20260906131858 8 287 0.0 0.0 0.00 0.13 0.13 99 1020.0
20260906131353 8 281 0.0 0.0 0.00 0.13 0.13 99 1020.2
20260906130849 8 281 0.0 0.0 0.00 0.13 0.13 99 1020.3
20260906130348 8 285 0.0 0.0 0.00 0.13 0.13 99 1020.5
20260906125847 8 290 0.0 0.0 0.00 0.13 0.13 99 1020.4
20260906125344 8 290 0.0 0.0 0.00 0.13 0.13 99 1020.4
20260906124839 8 287 0.0 0.0 0.00 0.13 0.13 99 1020.4
20260906124335 8 287 0.0 0.0 0.00 0.13 0.13 99 1020.3
20260906123834 8 287 0.0 0.0 0.13 0.13 0.13 99 1020.4
20260906123329 8 287 0.0 0.0 0.30 0.13 0.13 99 1020.5
20260906122829 8 287 0.0 0.0 0.36 0.10 0.10 99 1020.5
20260906122324 8 288 0.0 0.0 0.18 0.08 0.08 99 1020.7
20260906121821 8 289 0.0 0.0 0.13 0.05 0.05 99 1020.5
20260906121316 8 287 0.0 0.0 0.00 0.03 0.03 99 1020.5
20260906120813 8 287 0.0 0.0 0.00 0.03 0.03 99 1020.5
20260906120308 8 287 0.0 0.0 0.00 0.03 0.03 99 1020.7
20260906115804 8 287 0.0 0.0 0.00 0.03 0.03 99 1021.0
20260906115259 8 278 0.0 0.0 0.00 0.03 0.03 99 1021.0
20260906114758 8 278 0.0 0.0 0.18 0.03 0.03 99 1021.2
20260906114249 8 278 0.0 0.0 0.18 0.03 0.03 99 1021.5
20260906113744 8 278 0.0 0.0 0.00 0.00 0.00 99 1021.3
20260906113243 8 278 0.0 0.0 0.00 0.00 0.00 99 1021.4
20260906112743 8 278 0.0 0.0 0.00 0.00 0.00 99 1021.5
20260906112239 7 278 0.0 0.0 0.00 0.00 0.00 99 1021.5
20260906111738 7 278 0.0 0.0 0.00 0.00 0.00 99 1021.6
20260906111233 7 278 0.0 0.0 0.00 0.00 0.00 99 1021.5
20260906110728 7 277 0.0 0.0 0.00 0.00 0.00 99 1021.6
20260906110218 7 279 0.0 0.0 0.00 0.00 0.00 99 1021.7
20260906105717 7 278 0.0 0.0 0.00 0.00 0.00 99 1021.8
20260906105213 7 278 0.0 0.0 0.00 0.00 0.00 99 1021.7
20260906104713 7 281 0.0 0.0 0.00 0.00 0.00 99 1021.8
20260906104212 7 281 0.0 0.0 0.00 0.00 0.00 99 1021.8
20260906103709 8 282 0.0 0.0 0.00 0.00 0.00 99 1022.1
20260906103205 7 282 0.0 0.0 0.00 0.00 0.00 99 1021.7
20260906102701 7 278 0.0 0.0 0.00 0.00 0.00 99 1021.7
20260906102200 7 278 0.0 0.0 0.00 0.00 0.00 99 1021.8
20260906101659 7 290 0.0 0.0 0.00 0.00 0.00 99 1021.4
20260906101155 7 290 0.0 0.0 0.00 0.00 0.00 99 1021.3
20260906100651 8 322 0.0 0.0 0.00 0.00 0.00 99 1021.4
20260906100150 8 280 0.0 0.0 0.00 0.00 0.00 99 1021.5
20260906095645 8 280 0.0 0.0 0.00 0.00 0.00 99 1021.5
20260906095141 8 279 0.0 0.0 0.00 0.00 0.00 99 1021.3
20260906094639 8 278 0.0 0.0 0.00 0.00 0.00 99 1021.4
20260906094135 8 285 0.0 0.0 0.00 0.00 0.00 99 1021.4
20260906093632 8 300 0.0 0.0 0.00 0.00 0.00 99 1021.5
20260906093126 8 302 0.0 0.0 0.00 0.00 0.00 99 1021.7
20260906092621 8 290 0.0 0.0 0.00 0.00 0.00 99 1021.8
20260906092116 8 274 0.0 0.0 0.00 0.00 0.00 99 1021.8
20260906091612 8 274 0.0 0.0 0.00 0.00 0.00 99 1022.0
20260906091108 8 274 0.0 0.0 0.00 0.00 0.00 99 1022.0
20260906090603 8 285 0.0 0.0 0.00 0.00 0.00 99 1021.6
20260906085602 8 276 0.0 0.0 0.00 0.00 0.00 99 1021.8
20260906085102 8 277 0.0 0.0 0.00 0.00 0.00 99 1021.8
20260906084556 8 283 0.0 0.0 0.00 0.00 0.00 99 1022.1
20260906084055 8 282 0.0 0.0 0.00 0.00 0.00 99 1022.0
20260906083551 8 281 0.0 0.0 0.00 0.00 0.00 99 1022.3
20260906083050 8 280 0.0 0.0 0.00 0.00 0.00 99 1022.4
20260906082546 8 280 0.0 0.0 0.00 0.00 0.00 99 1022.5
20260906082042 8 280 0.0 0.0 0.00 0.00 0.00 99 1022.5
20260906081538 8 280 0.0 0.0 0.00 0.00 0.00 99 1022.5
20260906081033 8 280 0.0 0.0 0.00 0.00 0.00 99 1022.6
20260906080529 8 280 0.0 0.0 0.00 0.00 0.00 99 1022.6
20260906080025 8 280 0.0 0.0 0.00 0.00 0.00 99 1022.7
20260906075519 8 280 0.0 0.0 0.00 0.00 0.00 99 1022.7
20260906075014 8 280 0.0 0.0 0.00 0.00 0.00 99 1022.6
20260906074509 8 280 0.0 0.0 0.00 0.00 0.00 99 1022.6
20260906074007 8 280 0.0 0.0 0.00 0.00 0.00 99 1022.5
20260906073502 8 280 0.0 0.0 0.00 0.00 0.00 99 1022.6
20260906072958 8 280 0.0 0.0 0.00 0.00 0.00 99 1022.5
20260906072453 8 280 0.0 0.0 0.00 0.00 0.00 99 1022.7
20260906071949 8 280 0.0 0.0 0.00 0.00 0.00 99 1022.7
20260906071445 8 280 0.0 0.0 0.00 0.00 0.00 99 1022.7
20260906070940 8 280 0.0 0.0 0.00 0.00 0.00 99 1023.0
20260906070436 8 280 0.0 0.0 0.00 0.00 0.00 99 1023.0
20260906065932 8 281 0.0 0.0 0.00 0.00 0.00 99 1023.0
20260906065426 8 281 0.0 0.0 0.00 0.00 0.00 99 1023.0
20260906064922 8 281 0.0 0.0 0.00 0.00 0.00 99 1022.8
20260906064418 8 282 0.0 0.0 0.00 0.00 0.00 99 1022.8
20260906063913 8 281 0.0 0.0 0.00 0.00 0.00 99 1022.8
20260906063408 8 281 0.0 0.0 0.00 0.00 0.00 99 1023.0
20260906062903 8 281 0.0 0.0 0.00 0.00 0.00 99 1023.0
20260906062402 8 281 0.0 0.0 0.00 0.00 0.00 99 1022.8
20260906061857 8 281 0.0 0.0 0.00 0.00 0.00 99 1023.0
20260906061354 8 281 0.0 0.0 0.00 0.00 0.00 99 1022.8
20260906060848 8 281 0.0 0.0 0.00 0.00 0.00 99 1023.2
20260906060346 8 281 0.0 0.0 0.00 0.00 0.00 99 1023.1
20260906055842 8 281 0.0 0.0 0.00 0.71 0.71 99 1022.8
20260906055337 8 279 0.0 0.0 0.00 0.71 0.71 99 1022.8
20260906054832 8 287 0.0 0.0 0.00 0.71 0.71 99 1022.8
20260906054327 8 287 0.0 0.0 0.00 0.71 0.71 99 1022.8
20260906053824 8 287 0.0 0.0 0.00 0.71 0.71 99 1022.8
20260906053319 8 270 0.0 0.0 0.00 0.71 0.71 99 1022.8
20260906052814 8 268 0.0 0.0 0.00 0.71 0.71 99 1022.7
20260906052311 9 288 0.0 0.0 0.00 0.71 0.71 99 1023.1
20260906051808 9 289 0.0 0.0 0.00 0.71 0.71 99 1023.2
20260906051307 9 288 0.0 0.0 0.00 0.71 0.71 99 1023.1
20260906050803 9 279 0.0 0.0 0.00 0.71 0.71 99 1023.0
20260906050258 9 284 0.0 0.0 0.00 0.71 0.71 99 1023.1
20260906045756 9 268 0.0 0.0 0.00 0.71 0.71 99 1023.2
20260906045251 9 276 0.0 0.0 0.00 0.71 0.71 99 1023.1
20260906044747 9 275 0.0 0.0 0.00 0.71 0.71 99 1023.1
20260906044242 9 279 0.0 0.0 0.00 0.71 0.71 99 1023.1
20260906043738 9 292 0.0 0.0 0.00 0.71 0.71 99 1023.2
20260906043234 9 292 0.0 0.0 0.00 0.71 0.71 99 1023.2
20260906042733 9 295 0.0 0.0 0.00 0.71 0.71 99 1023.4
20260906042232 9 281 0.0 0.0 0.00 0.71 0.71 99 1023.4
20260906041727 9 281 0.0 0.0 0.00 0.71 0.71 99 1023.2
20260906041222 9 281 0.0 0.0 0.00 0.71 0.71 99 1023.3
20260906040719 9 281 0.0 0.0 0.00 0.71 0.71 99 1023.2
20260906040213 9 281 0.0 0.0 0.00 0.71 0.71 99 1023.1
20260906035709 9 281 0.0 0.0 0.00 0.71 0.71 99 1023.1
20260906035204 9 280 0.0 0.0 0.00 0.71 0.71 99 1023.2
20260906034658 9 280 0.0 0.0 0.00 0.71 0.71 99 1023.0
20260906034153 9 284 0.0 0.0 0.00 0.71 0.71 99 1022.8
20260906033650 9 284 0.0 0.0 0.00 0.71 0.71 99 1022.8
20260906033149 9 284 0.0 0.0 0.00 0.71 0.71 99 1022.7
20260906032646 9 284 0.0 0.0 0.00 0.71 0.71 99 1022.7
20260906032146 9 284 0.0 0.0 0.00 0.71 0.71 99 1022.5
20260906031641 9 284 0.0 0.0 0.00 0.71 0.71 99 1022.6
20260906031136 9 284 0.0 0.0 0.00 0.71 0.71 99 1022.4
20260906030635 8 284 0.0 0.0 0.00 0.71 0.71 99 1022.3
20260906030131 8 284 0.0 0.0 0.00 0.71 0.71 99 1022.2
20260906025630 8 284 0.0 0.0 0.00 0.71 0.71 99 1022.2
20260906025130 9 284 0.0 0.0 0.00 0.71 0.71 99 1022.2
20260906024624 9 284 0.0 0.0 0.00 0.71 0.71 99 1022.1
20260906024119 9 285 0.0 0.0 0.00 0.71 0.71 99 1022.2
20260906023615 9 285 0.0 0.0 0.00 0.71 0.71 99 1022.3
20260906023109 9 276 0.0 0.0 0.00 0.71 0.71 99 1022.1
20260906022604 10 276 0.0 0.0 0.00 0.71 0.71 99 1022.3
20260906022100 10 277 0.0 0.0 0.00 0.71 0.71 98 1022.2
20260906021555 10 277 0.0 0.0 0.00 0.71 0.71 98 1022.2
20260906021054 10 355 0.0 0.0 0.00 0.71 0.71 98 1022.2
20260906020548 10 277 0.0 0.0 0.00 0.71 0.71 98 1022.2
20260906020048 10 300 0.0 0.0 0.00 0.71 0.71 98 1022.4
20260906015542 10 284 0.0 0.0 0.00 0.71 0.71 98 1022.2
20260906015042 10 283 0.0 0.0 0.00 0.71 0.71 98 1022.4
20260906014536 10 304 0.0 0.0 0.00 0.71 0.71 98 1022.3
20260906014032 10 280 0.0 0.0 0.00 0.71 0.71 98 1022.3
20260906013527 10 280 0.0 0.0 0.00 0.71 0.71 98 1022.4
20260906013023 10 285 0.0 0.0 0.00 0.71 0.71 98 1022.4
20260906012518 10 253 0.0 0.0 0.00 0.71 0.71 98 1022.4
20260906012017 10 285 0.0 0.0 0.00 0.71 0.71 98 1022.4
20260906011514 10 285 0.0 0.0 0.00 0.71 0.71 98 1022.5
20260906011013 10 300 0.0 0.0 0.00 0.71 0.71 98 1022.5
20260906010509 10 277 0.0 0.0 0.00 0.71 0.71 97 1022.5
20260906010005 10 299 0.0 0.0 0.00 0.71 0.71 97 1022.3
20260906005504 10 285 0.0 0.0 0.00 0.71 0.71 97 1022.3
20260906005002 10 300 0.0 0.0 0.00 0.71 0.71 97 1022.1
20260906004457 10 271 0.0 0.0 0.00 0.71 0.71 97 1022.2
20260906003952 10 277 0.0 0.0 0.00 0.71 0.71 97 1022.2
20260906003448 10 304 0.0 0.0 0.00 0.71 0.71 98 1022.2
20260906002943 10 275 0.0 0.0 0.00 0.71 0.71 97 1022.2
20260906002443 10 283 0.0 0.0 0.00 0.71 0.71 97 1022.2
20260906001937 10 308 0.0 0.0 0.00 0.71 0.71 98 1022.2
20260906001433 10 300 0.0 0.0 0.00 0.71 0.71 98 1022.3
20260906000928 10 269 0.0 0.0 0.00 0.71 0.71 98 1022.1
20260906000425 10 267 0.0 0.0 0.00 0.71 0.71 98 1022.2
20260905235918 10 307 0.0 0.0 0.00 0.71 0.71 98 1022.2
20260905235413 10 315 0.0 0.0 0.13 0.71 0.71 98 1022.0
20260905234908 10 104 0.0 3.2 0.13 0.71 0.71 98 1022.1